sat.trackr.live / text

‹ back to catalog

STARLINK-35211

NORAD 65757 · 2025-216Z

PAYLOAD ACTIVE UNKNOWN

§ Identity

Operator
Country
US
Launch date
2025-09-25
Launch site
AFETR
Launch vehicle
Mass (kg)
RCS (m²)

Purposes: comms

External: N2YO · Heavens-Above · Gunter

§ Orbital elements

Epoch: 2026-05-24T21:58:57.336096Z

Period
94.11 min
Inclination
53.1603°
Eccentricity
0.0001084
Mean motion
15.30200153 rev/d
Perigee alt
474.5 km
Apogee alt
476.0 km
Semi-major
6,853.4 km
B*
2.1799e-4
RAAN
338.8600°
Arg perigee
92.4513°
Mean anomaly
267.6612°
Rev number
3,821

§ Raw data

STARLINK-352111 65757U 25216Z   26144.91594139  .00006103  00000+0  21799-3 0  99942 65757  53.1603 338.8600 0001084  92.4513 267.6612 15.30200153 38219

JSON: /api/v1/satellites/65757 · /tle

For live sub-satellite position, see the globe view (requires WebGL).

§ Visibility from observer

Set your observer location to see the next 7 days of passes ≥ 10°. The values pass through the URL so the page stays shareable.

No JS? Fill the form by hand. The geolocation button needs JavaScript.